Time,TemperatureF,DewpointF,PressureIn,WindDirection,WindDirectionDegrees,WindSpeedMPH,WindSpeedGustMPH,Humidity,HourlyPrecipIn,Conditions,Clouds,dailyrainin,SolarRadiationWatts/m^2,SoftwareType,DateUTC
2013-10-22 00:07:00,50.9,38.0,29.93,SSW,202,5.0,-999.0,61,-99.99,,,0.00,0,weatherlink.com 1.10,2013-10-22 04:07:00,
2013-10-22 00:22:00,51.0,38.0,29.92,South,186,8.0,-999.0,61,-99.99,,,0.00,0,weatherlink.com 1.10,2013-10-22 04:22:00,
2013-10-22 00:37:00,50.6,37.0,29.93,South,173,10.0,-999.0,61,-99.99,,,0.00,0,weatherlink.com 1.10,2013-10-22 04:37:00,
2013-10-22 00:52:00,50.3,38.0,29.92,SW,215,10.0,-999.0,63,-99.99,,,0.00,0,weatherlink.com 1.10,2013-10-22 04:52:00,
2013-10-22 01:07:00,50.1,38.0,29.92,SSW,192,17.0,-999.0,63,-99.99,,,0.00,0,weatherlink.com 1.10,2013-10-22 05:07:00,
2013-10-22 01:22:00,49.9,37.0,29.91,SSW,192,9.0,-999.0,62,-99.99,,,0.00,0,weatherlink.com 1.10,2013-10-22 05:22:00,
2013-10-22 01:37:00,49.6,37.0,29.91,South,189,7.0,-999.0,63,-99.99,,,0.00,0,weatherlink.com 1.10,2013-10-22 05:37:00,
2013-10-22 01:52:00,49.6,38.0,29.91,SSW,200,7.0,-999.0,64,-99.99,,,0.00,0,weatherlink.com 1.10,2013-10-22 05:52:00,
2013-10-22 02:07:00,49.7,38.0,29.90,South,173,5.0,-999.0,64,-99.99,,,0.00,0,weatherlink.com 1.10,2013-10-22 06:07:00,
2013-10-22 02:22:00,49.6,39.0,29.89,South,189,0.0,-999.0,66,-99.99,,,0.00,0,weatherlink.com 1.10,2013-10-22 06:22:00,
2013-10-22 02:37:00,49.3,39.0,29.89,South,179,7.0,-999.0,67,-99.99,,,0.00,0,weatherlink.com 1.10,2013-10-22 06:37:00,
2013-10-22 02:52:00,49.2,39.0,29.87,South,178,7.0,-999.0,67,-99.99,,,0.00,0,weatherlink.com 1.10,2013-10-22 06:52:00,
2013-10-22 03:07:00,49.1,39.0,29.86,SW,227,5.0,-999.0,68,-99.99,,,0.00,0,weatherlink.com 1.10,2013-10-22 07:07:00,
2013-10-22 03:22:00,49.2,39.0,29.86,East,101,0.0,-999.0,68,-99.99,,,0.00,0,weatherlink.com 1.10,2013-10-22 07:22:00,
2013-10-22 03:37:00,49.2,39.0,29.84,SSW,200,2.0,-999.0,69,-99.99,,,0.00,0,weatherlink.com 1.10,2013-10-22 07:37:00,
2013-10-22 03:52:00,49.2,39.0,29.85,SW,236,3.0,-999.0,69,-99.99,,,0.00,0,weatherlink.com 1.10,2013-10-22 07:52:00,
2013-10-22 04:07:00,49.0,40.0,29.84,SSE,168,2.0,-999.0,70,-99.99,,,0.00,0,weatherlink.com 1.10,2013-10-22 08:07:00,
2013-10-22 04:22:00,48.8,40.0,29.84,SSW,209,6.0,-999.0,71,-99.99,,,0.00,0,weatherlink.com 1.10,2013-10-22 08:22:00,
2013-10-22 04:37:00,48.7,40.0,29.84,SSW,193,2.0,-999.0,72,-99.99,,,0.00,0,weatherlink.com 1.10,2013-10-22 08:37:00,
2013-10-22 04:52:00,48.8,40.0,29.84,South,190,0.0,-999.0,73,-99.99,,,0.00,0,weatherlink.com 1.10,2013-10-22 08:52:00,
2013-10-22 05:07:00,49.2,41.0,29.83,WSW,238,2.0,-999.0,73,-99.99,,,0.00,0,weatherlink.com 1.10,2013-10-22 09:07:00,
2013-10-22 05:22:00,48.9,41.0,29.83,SW,214,2.0,-999.0,73,-99.99,,,0.00,0,weatherlink.com 1.10,2013-10-22 09:22:00,
2013-10-22 05:37:00,48.7,41.0,29.82,SSW,209,4.0,-999.0,74,-99.99,,,0.00,0,weatherlink.com 1.10,2013-10-22 09:37:00,
2013-10-22 05:52:00,48.8,41.0,29.82,SSW,211,0.0,-999.0,74,-99.99,,,0.00,0,weatherlink.com 1.10,2013-10-22 09:52:00,
2013-10-22 06:07:00,48.9,41.0,29.82,SSW,197,3.0,-999.0,74,-99.99,,,0.00,0,weatherlink.com 1.10,2013-10-22 10:07:00,
2013-10-22 06:22:00,49.2,41.0,29.81,SW,231,0.0,-999.0,73,-99.99,,,0.00,0,weatherlink.com 1.10,2013-10-22 10:22:00,
2013-10-22 06:37:00,49.3,41.0,29.80,SW,233,1.0,-999.0,74,-99.99,,,0.00,0,weatherlink.com 1.10,2013-10-22 10:37:00,
2013-10-22 06:52:00,49.2,41.0,29.80,SW,221,1.0,-999.0,74,-99.99,,,0.00,0,weatherlink.com 1.10,2013-10-22 10:52:00,
2013-10-22 07:07:00,49.2,41.0,29.80,SW,219,1.0,-999.0,74,-99.99,,,0.00,0,weatherlink.com 1.10,2013-10-22 11:07:00,
2013-10-22 07:22:00,49.4,41.0,29.79,SSW,204,1.0,-999.0,74,-99.99,,,0.00,0,weatherlink.com 1.10,2013-10-22 11:22:00,
2013-10-22 07:37:00,49.2,42.0,29.79,SW,234,3.0,-999.0,75,-99.99,,,0.00,0,weatherlink.com 1.10,2013-10-22 11:37:00,
2013-10-22 07:52:00,49.6,42.0,29.79,SSW,198,3.0,-999.0,74,-99.99,,,0.00,18,weatherlink.com 1.10,2013-10-22 11:52:00,
2013-10-22 08:07:00,49.9,42.0,29.79,SW,230,6.0,-999.0,73,-99.99,,,0.00,53,weatherlink.com 1.10,2013-10-22 12:07:00,
2013-10-22 08:22:00,50.2,42.0,29.79,South,190,6.0,-999.0,73,-99.99,,,0.00,70,weatherlink.com 1.10,2013-10-22 12:22:00,
2013-10-22 08:37:00,50.3,42.0,29.79,SSW,211,0.0,-999.0,74,-99.99,,,0.00,47,weatherlink.com 1.10,2013-10-22 12:37:00,
2013-10-22 08:52:00,49.9,43.0,29.79,WSW,241,4.0,-999.0,76,-99.99,,,0.00,72,weatherlink.com 1.10,2013-10-22 12:52:00,
2013-10-22 09:07:00,50.3,43.0,29.79,SW,227,4.0,-999.0,75,-99.99,,,0.00,83,weatherlink.com 1.10,2013-10-22 13:07:00,
2013-10-22 09:22:00,50.6,43.0,29.79,South,179,3.0,-999.0,74,-99.99,,,0.00,79,weatherlink.com 1.10,2013-10-22 13:22:00,
2013-10-22 09:52:00,50.3,43.0,29.79,South,190,1.0,-999.0,76,-99.99,,,0.00,76,weatherlink.com 1.10,2013-10-22 13:52:00,
2013-10-22 10:07:00,50.0,43.0,29.80,West,260,3.0,-999.0,77,-99.99,,,0.00,69,weatherlink.com 1.10,2013-10-22 14:07:00,
2013-10-22 10:22:00,48.8,44.0,29.80,SW,234,2.0,-999.0,82,-99.99,,,0.01,76,weatherlink.com 1.10,2013-10-22 14:22:00,
2013-10-22 10:37:00,48.5,44.0,29.80,SW,220,3.0,-999.0,85,-99.99,,,0.02,77,weatherlink.com 1.10,2013-10-22 14:37:00,
2013-10-22 10:52:00,48.2,44.0,29.80,SSW,207,7.0,-999.0,85,-99.99,,,0.02,58,weatherlink.com 1.10,2013-10-22 14:52:00,
2013-10-22 11:07:00,47.9,44.0,29.79,SSE,164,6.0,-999.0,87,-99.99,,,0.03,91,weatherlink.com 1.10,2013-10-22 15:07:00,
2013-10-22 11:22:00,47.7,44.0,29.78,South,169,6.0,-999.0,88,-99.99,,,0.04,116,weatherlink.com 1.10,2013-10-22 15:22:00,
2013-10-22 11:37:00,47.9,45.0,29.78,SSW,207,4.0,-999.0,88,-99.99,,,0.04,162,weatherlink.com 1.10,2013-10-22 15:37:00,
2013-10-22 11:52:00,48.7,45.0,29.78,SW,232,1.0,-999.0,86,-99.99,,,0.04,213,weatherlink.com 1.10,2013-10-22 15:52:00,
2013-10-22 12:07:00,49.7,44.0,29.78,SW,234,6.0,-999.0,82,-99.99,,,0.04,172,weatherlink.com 1.10,2013-10-22 16:07:00,
2013-10-22 12:22:00,51.7,44.0,29.77,SSW,207,10.0,-999.0,76,-99.99,,,0.04,169,weatherlink.com 1.10,2013-10-22 16:22:00,
2013-10-22 12:37:00,49.8,43.0,29.77,WNW,294,6.0,-999.0,76,-99.99,,,0.04,21,weatherlink.com 1.10,2013-10-22 16:37:00,
2013-10-22 12:52:00,45.3,40.0,29.78,NNW,348,1.0,-999.0,80,-99.99,,,0.04,74,weatherlink.com 1.10,2013-10-22 16:52:00,
2013-10-22 13:07:00,44.3,39.0,29.78,NNW,333,4.0,-999.0,81,-99.99,,,0.04,93,weatherlink.com 1.10,2013-10-22 17:07:00,
2013-10-22 13:22:00,44.5,39.0,29.78,WNW,286,11.0,-999.0,80,-99.99,,,0.04,202,weatherlink.com 1.10,2013-10-22 17:22:00,
2013-10-22 13:37:00,44.6,39.0,29.78,SW,223,3.0,-999.0,80,-99.99,,,0.04,149,weatherlink.com 1.10,2013-10-22 17:37:00,
2013-10-22 13:52:00,45.3,39.0,29.79,WSW,250,4.0,-999.0,79,-99.99,,,0.04,105,weatherlink.com 1.10,2013-10-22 17:52:00,
2013-10-22 14:07:00,45.9,39.0,29.78,West,269,3.0,-999.0,78,-99.99,,,0.04,149,weatherlink.com 1.10,2013-10-22 18:07:00,
2013-10-22 14:22:00,46.5,40.0,29.77,WNW,286,0.0,-999.0,77,-99.99,,,0.04,220,weatherlink.com 1.10,2013-10-22 18:22:00,
2013-10-22 14:37:00,47.0,40.0,29.77,West,267,0.0,-999.0,76,-99.99,,,0.04,146,weatherlink.com 1.10,2013-10-22 18:37:00,
2013-10-22 14:52:00,47.4,40.0,29.77,SSW,213,6.0,-999.0,76,-99.99,,,0.04,130,weatherlink.com 1.10,2013-10-22 18:52:00,
2013-10-22 15:07:00,48.7,41.0,29.76,SW,219,4.0,-999.0,74,-99.99,,,0.04,151,weatherlink.com 1.10,2013-10-22 19:07:00,
2013-10-22 15:22:00,49.7,40.0,29.75,West,270,2.0,-999.0,70,-99.99,,,0.04,104,weatherlink.com 1.10,2013-10-22 19:22:00,
2013-10-22 15:37:00,51.1,41.0,29.75,South,190,6.0,-999.0,68,-99.99,,,0.04,483,weatherlink.com 1.10,2013-10-22 19:37:00,
2013-10-22 15:52:00,51.6,38.0,29.76,WNW,291,5.0,-999.0,61,-99.99,,,0.04,76,weatherlink.com 1.10,2013-10-22 19:52:00,
2013-10-22 16:07:00,49.8,39.0,29.77,NW,309,9.0,-999.0,66,-99.99,,,0.04,341,weatherlink.com 1.10,2013-10-22 20:07:00,
2013-10-22 16:22:00,49.9,38.0,29.78,NNW,335,4.0,-999.0,65,-99.99,,,0.04,237,weatherlink.com 1.10,2013-10-22 20:22:00,
2013-10-22 16:37:00,49.0,38.0,29.79,WNW,284,4.0,-999.0,67,-99.99,,,0.04,188,weatherlink.com 1.10,2013-10-22 20:37:00,
2013-10-22 16:52:00,48.6,38.0,29.78,NNE,23,3.0,-999.0,68,-99.99,,,0.04,139,weatherlink.com 1.10,2013-10-22 20:52:00,
2013-10-22 17:07:00,48.0,37.0,29.79,West,277,3.0,-999.0,67,-99.99,,,0.04,104,weatherlink.com 1.10,2013-10-22 21:07:00,
2013-10-22 17:22:00,46.9,37.0,29.80,West,277,3.0,-999.0,68,-99.99,,,0.04,46,weatherlink.com 1.10,2013-10-22 21:22:00,
2013-10-22 17:37:00,45.8,37.0,29.80,SW,227,2.0,-999.0,71,-99.99,,,0.04,19,weatherlink.com 1.10,2013-10-22 21:37:00,
2013-10-22 17:52:00,44.9,36.0,29.80,NW,304,0.0,-999.0,72,-99.99,,,0.04,12,weatherlink.com 1.10,2013-10-22 21:52:00,
2013-10-22 18:07:00,44.4,37.0,29.81,WSW,244,1.0,-999.0,74,-99.99,,,0.04,0,weatherlink.com 1.10,2013-10-22 22:07:00,
2013-10-22 18:22:00,43.1,36.0,29.81,WSW,244,0.0,-999.0,76,-99.99,,,0.04,0,weatherlink.com 1.10,2013-10-22 22:22:00,
2013-10-22 18:37:00,42.3,35.0,29.81,SW,222,5.0,-999.0,76,-99.99,,,0.04,0,weatherlink.com 1.10,2013-10-22 22:37:00,
2013-10-22 18:52:00,42.3,34.0,29.82,WSW,245,1.0,-999.0,73,-99.99,,,0.04,0,weatherlink.com 1.10,2013-10-22 22:52:00,
2013-10-22 19:07:00,41.6,33.0,29.82,WSW,244,2.0,-999.0,72,-99.99,,,0.04,0,weatherlink.com 1.10,2013-10-22 23:07:00,
2013-10-22 19:22:00,41.1,33.0,29.83,WSW,243,0.0,-999.0,73,-99.99,,,0.04,0,weatherlink.com 1.10,2013-10-22 23:22:00,
2013-10-22 19:37:00,40.6,33.0,29.83,SW,229,2.0,-999.0,73,-99.99,,,0.04,0,weatherlink.com 1.10,2013-10-22 23:37:00,
2013-10-22 19:52:00,40.2,32.0,29.83,SW,230,0.0,-999.0,73,-99.99,,,0.04,0,weatherlink.com 1.10,2013-10-22 23:52:00,
2013-10-22 20:07:00,39.3,32.0,29.82,SW,230,0.0,-999.0,74,-99.99,,,0.04,0,weatherlink.com 1.10,2013-10-23 00:07:00,
2013-10-22 20:22:00,37.4,31.0,29.82,SW,230,0.0,-999.0,78,-99.99,,,0.04,0,weatherlink.com 1.10,2013-10-23 00:22:00,
2013-10-22 20:37:00,35.8,31.0,29.83,SW,230,0.0,-999.0,82,-99.99,,,0.04,0,weatherlink.com 1.10,2013-10-23 00:37:00,
2013-10-22 20:52:00,35.1,31.0,29.84,SW,230,0.0,-999.0,84,-99.99,,,0.04,0,weatherlink.com 1.10,2013-10-23 00:52:00,
2013-10-22 21:07:00,34.4,30.0,29.84,SW,230,0.0,-999.0,85,-99.99,,,0.04,0,weatherlink.com 1.10,2013-10-23 01:07:00,
2013-10-22 21:22:00,33.8,30.0,29.84,SW,230,0.0,-999.0,86,-99.99,,,0.04,0,weatherlink.com 1.10,2013-10-23 01:22:00,
2013-10-22 21:37:00,33.0,30.0,29.84,SW,230,0.0,-999.0,87,-99.99,,,0.04,0,weatherlink.com 1.10,2013-10-23 01:37:00,
2013-10-22 21:52:00,32.5,29.0,29.84,SW,230,0.0,-999.0,88,-99.99,,,0.04,0,weatherlink.com 1.10,2013-10-23 01:52:00,
2013-10-22 22:07:00,32.0,29.0,29.84,SW,230,0.0,-999.0,89,-99.99,,,0.04,0,weatherlink.com 1.10,2013-10-23 02:07:00,
2013-10-22 22:22:00,32.2,30.0,29.84,SW,230,0.0,-999.0,90,-99.99,,,0.04,0,weatherlink.com 1.10,2013-10-23 02:22:00,
2013-10-22 22:37:00,32.1,29.0,29.85,SW,230,0.0,-999.0,89,-99.99,,,0.04,0,weatherlink.com 1.10,2013-10-23 02:37:00,
2013-10-22 22:52:00,31.5,29.0,29.85,SW,230,0.0,-999.0,90,-99.99,,,0.04,0,weatherlink.com 1.10,2013-10-23 02:52:00,
2013-10-22 23:07:00,31.3,29.0,29.85,SW,230,0.0,-999.0,90,-99.99,,,0.04,0,weatherlink.com 1.10,2013-10-23 03:07:00,
2013-10-22 23:22:00,31.2,29.0,29.85,SW,230,0.0,-999.0,90,-99.99,,,0.04,0,weatherlink.com 1.10,2013-10-23 03:22:00,
2013-10-22 23:37:00,31.5,29.0,29.85,SW,230,0.0,-999.0,90,-99.99,,,0.04,0,weatherlink.com 1.10,2013-10-23 03:37:00,
2013-10-22 23:52:00,31.0,29.0,29.84,SW,230,0.0,-999.0,90,-99.99,,,0.04,0,weatherlink.com 1.10,2013-10-23 03:52:00,